TimeCDT,TemperatureF,Dew PointF,Humidity,Sea Level PressureIn,VisibilityMPH,Wind Direction,Wind SpeedMPH,Gust SpeedMPH,PrecipitationIn,Events,Conditions,WindDirDegrees,DateUTC
12:30 AM,51.8,46.4,82,29.83,10.0,East,9.2,-,N/A,,Overcast,90,2012-10-23 05:30:00
1:10 AM,51.8,46.4,82,29.82,10.0,East,10.4,-,N/A,,Overcast,100,2012-10-23 06:10:00
1:50 AM,51.8,46.4,82,29.80,10.0,East,10.4,-,N/A,,Overcast,100,2012-10-23 06:50:00
2:29 AM,51.8,46.4,82,29.78,10.0,East,11.5,-,N/A,,Overcast,100,2012-10-23 07:29:00
2:50 AM,51.8,46.4,82,29.77,10.0,East,12.7,-,N/A,,Overcast,100,2012-10-23 07:50:00
3:09 AM,51.8,46.4,82,29.77,10.0,East,9.2,-,N/A,,Overcast,100,2012-10-23 08:09:00
3:30 AM,51.8,46.4,82,29.75,10.0,ESE,12.7,-,N/A,,Overcast,110,2012-10-23 08:30:00
3:49 AM,50.0,46.4,87,29.75,10.0,ESE,9.2,-,N/A,,Overcast,110,2012-10-23 08:49:00
4:10 AM,50.0,46.4,87,29.75,7.0,ESE,11.5,-,N/A,,Overcast,110,2012-10-23 09:10:00
4:30 AM,50.0,48.2,94,29.75,7.0,ESE,9.2,-,N/A,,Overcast,110,2012-10-23 09:30:00
4:49 AM,50.0,48.2,94,29.74,7.0,ESE,11.5,-,N/A,,Overcast,110,2012-10-23 09:49:00
5:10 AM,50.0,48.2,94,29.75,7.0,East,9.2,-,N/A,,Overcast,100,2012-10-23 10:10:00
5:50 AM,50.0,48.2,94,29.75,7.0,East,10.4,-,N/A,,Overcast,100,2012-10-23 10:50:00
6:09 AM,50.0,48.2,94,29.74,3.0,ESE,9.2,-,N/A,,Overcast,110,2012-10-23 11:09:00
6:30 AM,50.0,48.2,94,29.74,2.0,ESE,9.2,-,N/A,,Overcast,110,2012-10-23 11:30:00
7:10 AM,50.0,48.2,94,29.72,1.8,ESE,11.5,-,N/A,,Overcast,110,2012-10-23 12:10:00
8:50 AM,51.8,50.0,94,29.71,0.5,East,11.5,-,N/A,Fog,Fog,100,2012-10-23 13:50:00
9:30 AM,51.8,51.8,100,29.71,1.0,ESE,10.4,-,N/A,,Overcast,110,2012-10-23 14:30:00
10:10 AM,53.6,51.8,94,29.70,1.0,ESE,6.9,-,N/A,,Overcast,110,2012-10-23 15:10:00
10:29 AM,53.6,53.6,100,29.71,1.2,SE,5.8,-,N/A,,Overcast,130,2012-10-23 15:29:00
10:50 AM,53.6,53.6,100,29.70,1.2,ESE,6.9,-,N/A,,Overcast,120,2012-10-23 15:50:00
11:09 AM,53.6,53.6,100,29.69,0.8,ESE,8.1,-,N/A,,Overcast,120,2012-10-23 16:09:00
11:30 AM,55.4,53.6,94,29.68,0.5,ESE,9.2,-,N/A,Fog,Fog,120,2012-10-23 16:30:00
11:50 AM,55.4,53.6,94,29.68,1.0,SE,8.1,-,N/A,,Overcast,130,2012-10-23 16:50:00
12:10 PM,55.4,55.4,100,29.67,1.0,SE,11.5,-,N/A,,Overcast,130,2012-10-23 17:10:00
12:30 PM,55.4,55.4,100,29.68,1.0,SE,10.4,-,N/A,,Overcast,140,2012-10-23 17:30:00
12:49 PM,55.4,55.4,100,29.67,1.0,SE,8.1,-,N/A,,Overcast,140,2012-10-23 17:49:00
1:29 PM,57.2,55.4,94,29.65,0.8,SSE,9.2,-,N/A,,Overcast,150,2012-10-23 18:29:00
1:50 PM,57.2,57.2,100,29.65,0.2,SE,8.1,-,N/A,Fog,Fog,140,2012-10-23 18:50:00
2:09 PM,57.2,57.2,100,29.65,0.2,SE,6.9,-,N/A,Fog,Fog,140,2012-10-23 19:09:00
2:30 PM,57.2,57.2,100,29.65,0.2,SE,5.8,-,N/A,Fog,Fog,140,2012-10-23 19:30:00
2:49 PM,57.2,57.2,100,29.64,0.2,SSE,5.8,-,N/A,Fog,Fog,150,2012-10-23 19:49:00
3:10 PM,59.0,57.2,94,29.64,0.2,SSE,5.8,-,N/A,Fog,Fog,160,2012-10-23 20:10:00
3:29 PM,59.0,57.2,94,29.64,0.2,South,8.1,-,N/A,Fog,Fog,170,2012-10-23 20:29:00
3:50 PM,59.0,57.2,94,29.64,0.2,South,5.8,-,N/A,Fog,Fog,170,2012-10-23 20:50:00
4:10 PM,59.0,57.2,94,29.65,0.2,SSW,5.8,-,N/A,Fog,Fog,200,2012-10-23 21:10:00
4:29 PM,59.0,57.2,94,29.65,0.2,South,5.8,-,N/A,Fog,Fog,180,2012-10-23 21:29:00
4:50 PM,59.0,57.2,94,29.66,0.2,South,5.8,-,N/A,Fog,Fog,190,2012-10-23 21:50:00
5:10 PM,59.0,57.2,94,29.65,0.5,Calm,Calm,-,N/A,Fog,Fog,0,2012-10-23 22:10:00
5:29 PM,59.0,57.2,94,29.66,0.8,SSE,3.5,-,N/A,,Overcast,150,2012-10-23 22:29:00
5:50 PM,59.0,57.2,94,29.66,0.8,SSE,4.6,-,N/A,,Overcast,150,2012-10-23 22:50:00
6:09 PM,59.0,57.2,94,29.65,0.8,SSE,4.6,-,N/A,,Overcast,150,2012-10-23 23:09:00
6:30 PM,59.0,57.2,94,29.67,1.5,South,4.6,-,N/A,,Overcast,180,2012-10-23 23:30:00
6:50 PM,59.0,57.2,94,29.69,1.2,South,6.9,-,N/A,,Overcast,190,2012-10-23 23:50:00
7:10 PM,59.0,57.2,94,29.70,2.0,SW,3.5,-,N/A,,Overcast,220,2012-10-24 00:10:00
7:29 PM,59.0,57.2,94,29.71,2.0,WSW,3.5,-,N/A,,Overcast,250,2012-10-24 00:29:00
7:49 PM,59.0,57.2,94,29.72,1.2,WSW,3.5,-,N/A,,Overcast,240,2012-10-24 00:49:00
8:10 PM,57.2,57.2,100,29.72,0.8,Calm,Calm,-,N/A,,Overcast,0,2012-10-24 01:10:00
8:29 PM,57.2,57.2,100,29.73,0.5,Calm,Calm,-,N/A,Fog,Fog,0,2012-10-24 01:29:00
8:50 PM,57.2,57.2,100,29.73,0.5,Calm,Calm,-,N/A,Fog,Fog,0,2012-10-24 01:50:00
9:10 PM,57.2,57.2,100,29.73,0.5,Calm,Calm,-,N/A,Fog,Fog,0,2012-10-24 02:10:00
9:29 PM,57.2,57.2,100,29.74,0.2,Calm,Calm,-,N/A,Fog,Fog,0,2012-10-24 02:29:00
9:50 PM,57.2,55.4,94,29.74,0.2,Calm,Calm,-,N/A,Fog,Fog,0,2012-10-24 02:50:00
10:09 PM,57.2,55.4,94,29.75,1.0,SW,3.5,-,N/A,,Overcast,230,2012-10-24 03:09:00
10:30 PM,57.2,55.4,94,29.75,3.0,WSW,4.6,-,N/A,,Scattered Clouds,250,2012-10-24 03:30:00
10:50 PM,55.4,53.6,94,29.75,3.0,West,4.6,-,N/A,,Scattered Clouds,270,2012-10-24 03:50:00
11:10 PM,53.6,53.6,100,29.76,2.5,WNW,4.6,-,N/A,,Clear,290,2012-10-24 04:10:00
11:30 PM,53.6,51.8,94,29.77,2.5,WNW,6.9,-,N/A,,Scattered Clouds,290,2012-10-24 04:30:00
11:49 PM,53.6,53.6,100,29.78,3.0,WNW,8.1,-,N/A,,Mostly Cloudy,300,2012-10-24 04:49:00